Weather Roundup
Issued by NWS Chicago, IL

Home | Current Version | Previous Version | Graphics & Text | Print | Product List | Glossary On
Versions: 1 2 3 4 5 6 7 8 9 10 11 12 13 14 15 16 17 18 19 20 21 22 23 24 25 26 27 28 29 30 31 32 33 34 35 36 37 38 39 40 41 42 43 44 45 46 47 48 49 50
945
NZUS59 KLOT 290504
HRRLOT

CHICAGO AREA WEATHER ROUNDUP
NATIONAL WEATHER SERVICE CHICAGO/ROMEOVILLE IL
1200 AM CDT THU JUN 29 2017

NOTE: "FAIR" INDICATES FEW OR NO CLOUDS BELOW 12,000 FEET WITH NO
SIGNIFICANT WEATHER AND/OR OBSTRUCTIONS TO VISIBILITY.

* THESE STATIONS ARE NOT UNDER NWS QUALITY CONTROL. THEY ALSO MAY NOT
  REPORT WEATHER SUCH AS PRECIPITATION OR FOG.

ILZ005-006-012>014-019>023-290600-
NORTHEAST ILLINOIS

CITY           SKY/WX    TMP DP  RH WIND       PRES   REMARKS
OHARE          TSTM      67  64  90 NW20G31   29.86R VSB 3/4
MIDWAY         CLOUDY    72  65  78 NE8       29.82R
AURORA         CLOUDY    71  64  78 CALM      29.82F
LANSING*       LGT RAIN  73  62  68 S18       29.82F
JOLIET*        MOCLDY    76  65  67 S16G24    29.80S
WAUKEGAN       CLOUDY    65  64  97 SE8       29.78F
DUPAGE AIRPORT LGT RAIN  72  65  78 SE8       29.82R
WHEELING       TSTM      65  65 100 SE9       29.85F FOG
MORRIS*        LGT RAIN  74  63  68 S17G23    29.78F
LEWIS AIRPORT* CLOUDY    73  62  66 S17G24    29.81R
$$

WIZ051-052-058>065-066-070>072-290600-
SOUTHEAST WISCONSIN

CITY           SKY/WX    TMP DP  RH WIND       PRES   REMARKS
MILWAUKEE      LGT RAIN  66  65  96 S17G25    29.72F
KENOSHA*       LGT RAIN  65  63  93 S17       29.77F
RACINE*        RAIN      65  63  93 SE15      29.76F FOG
$$

INZ001>003-010>013-019-020-290600-
NORTHWEST INDIANA

CITY           SKY/WX    TMP DP  RH WIND       PRES   REMARKS
GARY*          MOCLDY    75  62  62 S13G20    29.81F
MICHIGAN CITY* NOT AVBL
RENSSELAER*    NOT AVBL
VALPARAISO     CLOUDY    73  63  70 S14       29.85F
$$

LMZ740>746-290600-
SOUTHERN LAKE MICHIGAN

STATION/POSITION TIME  SKY/WX   TEMP WIND        PRES    VSBY
                                AIR  DIR/SP/G
                 (UTC)          (F)  (DEG/KT/KT) (MB)    (MI)
HARRISON CRIB    0440            67   40/ 17/ 17   N/A
BURNHAM HARBOR   0500            65                N/A
CALUMET HARBOR   0430            74  170/ 10/ 14 1008.9F
BURNS HARBOR     0440            72  190/ 14/ 20 1010.2F
MICHIGAN CITY    0440            72  170/ 16/ 19   N/A
$$

ABBREVIATIONS USED IN REMARKS
   TC - TEMPERATURE IN CELSIUS
  WCI - WIND CHILL INDEX
   HX - HEAT INDEX
  VSB - VISIBILITY
$$




USA.gov is the U.S. government's official web portal to all federal, state and local government web resources and services.